Regional Weather Roundup
Issued by NWS

Home | Current Version | Previous Version | Text Only | Print | Product List | Glossary On
Versions: 1 2 3 4 5 6 7 8 9 10 11 12 13 14 15 16 17 18 19 20 21 22 23 24 25 26 27 28 29 30 31 32 33 34 35 36 37 38 39 40 41 42 43 44 45 46 47 48 49 50
000
ASUS43 KOAX 250010
RWRNE

WEATHER ROUNDUP FOR NEBRASKA
NATIONAL WEATHER SERVICE OMAHA NE
700 PM CDT TUE MAY 24 2016

NOTES: SATELLITE DATA IS BEING USED TO AUGMENT CLOUD COVER ABOVE
       12000 FEET.
       "FAIR" INDICATES FEW OR NO CLOUDS BELOW 12,000 FEET WITH NO
       SIGNIFICANT WEATHER AND/OR OBSTRUCTIONS TO VISIBILITY.

  * THESE STATIONS DO NOT REPORT WEATHER SUCH AS RAIN...SNOW OR FOG.

NEZ001>004-019>022-054>056-250100-
NEBRASKA PANHANDLE

CITY           SKY/WX    TMP DP  RH WIND       PRES   REMARKS
SCOTTSBLUFF    TSTM      71  35  26 SE29G54   29.81R
6HR MIN TEMP:  69; 6HR MAX TEMP:  78; 6HR PCP: TRACE;

ALLIANCE       CLOUDY    71  49  45 S18G28    29.80F
6HR MIN TEMP:  71; 6HR MAX TEMP:  77;

CHADRON        PTSUNNY   68  43  40 N13G25    29.80R
6HR MIN TEMP:  73; 6HR MAX TEMP:  80;

KIMBALL        CLOUDY    55  51  87 N7        29.92F
SIDNEY         CLOUDY    69  53  56 S6        29.86R
6HR MIN TEMP:  69; 6HR MAX TEMP:  78;

$$

NEZ057>060-069>072-079>082-250100-
SOUTHWEST NEBRASKA

CITY           SKY/WX    TMP DP  RH WIND       PRES   REMARKS
NORTH PLATTE   MOSUNNY   74  59  59 S12       29.81F
6HR MIN TEMP:  74; 6HR MAX TEMP:  79;

IMPERIAL       CLOUDY    73  59  61 SE14      29.81F
6HR MIN TEMP:  73; 6HR MAX TEMP:  77;

LEXINGTON      MOSUNNY   75  59  56 SE13      29.83F
MCCOOK         MOSUNNY   75  60  59 SE15G22   29.79F
6HR MIN TEMP:  74; 6HR MAX TEMP:  78;

OGALLALA       CLOUDY    74  55  52 SE14      29.81F
$$

NEZ005>010-023>029-035>040-094-250100-
NORTH CENTRAL NEBRASKA

CITY           SKY/WX    TMP DP  RH WIND       PRES   REMARKS
VALENTINE      CLOUDY    80  47  31 SE17G24   29.79F
6HR MIN TEMP:  77; 6HR MAX TEMP:  82;

AINSWORTH      SUNNY     77  47  35 SE12      29.82F
BROKEN BOW     MOSUNNY   79  56  45 SE12G18   29.83F
6HR MIN TEMP:  75; 6HR MAX TEMP:  81;

O`NEILL        SUNNY     80  52  37 SE6       29.83F
ORD            SUNNY     79  54  41 SE12      29.82F
6HR MIN TEMP:  77; 6HR MAX TEMP:  82;

THEDFORD       SUNNY     78  48  34 SE14      29.83F
$$

NEZ041-046>049-061>064-073>077-083>087-250100-
SOUTH CENTRAL NEBRASKA

CITY           SKY/WX    TMP DP  RH WIND       PRES   REMARKS
GRAND ISLAND   MOSUNNY   77  61  57 SE9       29.84F
6HR MIN TEMP:  76; 6HR MAX TEMP:  80;

AURORA         CLOUDY    80  60  50 S10       29.84F
HASTINGS       SUNNY     78  58  49 S10       29.83F
6HR MIN TEMP:  73; 6HR MAX TEMP:  79;

HEBRON         SUNNY     81  58  45 SE14      29.82F
HOLDREGE       CLOUDY    76  57  51 S16       29.83F
KEARNEY *      CLOUDY    77  57  50 SE15      29.85S
YORK           MOSUNNY   81  61  50 S12       29.85F
$$

NEZ011>018-030>034-042>045-250100-
NORTHEAST NEBRASKA

CITY           SKY/WX    TMP DP  RH WIND       PRES   REMARKS
NORFOLK        MOSUNNY   81  58  45 SE18      29.83S
6HR MIN TEMP:  79; 6HR MAX TEMP:  86;

ALBION         SUNNY     79  57  46 SE13      29.84F
BLAIR          SUNNY     80  60  50 E6        29.87S
FREMONT        SUNNY     79  59  49 SE8       29.86F
TEKAMAH        SUNNY     81  59  47 SE9       29.85S
6HR MIN TEMP:  75; 6HR MAX TEMP:  84;

WAYNE          SUNNY     81  57  44 SE14      29.85S
$$

NEZ050>053-065>068-078-088>093-250100-
SOUTHEAST NEBRASKA

CITY           SKY/WX    TMP DP  RH WIND       PRES   REMARKS
LINCOLN        MOSUNNY   80  60  50 S6        29.86F
6HR MIN TEMP:  74; 6HR MAX TEMP:  83;

OMAHA EPPLEY   MOSUNNY   81  59  47 SE7       29.86S
6HR MIN TEMP:  77; 6HR MAX TEMP:  82;

BEATRICE       SUNNY     81  62  52 SE9       29.85F
FALLS CITY     SUNNY     82  63  52 S3        29.85F
6HR MIN TEMP:  78; 6HR MAX TEMP:  85;

NEBRASKA CITY  SUNNY     80  60  50 E5        29.87S
PLATTSMOUTH    SUNNY     81  60  50 SE3       29.88S
$$

NEZ044-045-051>053-067-250100-
OMAHA AREA

CITY           SKY/WX    TMP DP  RH WIND       PRES   REMARKS
OMAHA EPPLEY   MOSUNNY   81  59  47 SE7       29.86S
6HR MIN TEMP:  77; 6HR MAX TEMP:  82;

BLAIR          SUNNY     80  60  50 E6        29.87S
FREMONT        SUNNY     79  59  49 SE8       29.86F
MILLARD        SUNNY     81  60  50 SE7       29.86S
PLATTSMOUTH    SUNNY     81  60  50 SE3       29.88S
WAHOO          FAIR      79  60  50 SE6       29.86F
$$




USA.gov is the U.S. government's official web portal to all federal, state and local government web resources and services.